星链-4538 (STARLINK-4538 )

导读

STARLINK-4538是美国太空探索技术公司Starlink星链互联网卫星星座中的一颗卫星,于2022年8月10日发射入轨。星链项目旨在构建全球卫星互联网,为全球各地提供低延迟宽带网络服务,STARLINK-4538是该星座组网建设过程中的重要组成部分,补充完善了星链星座的卫星网络覆盖与服务能力。

Basic Information
目录编号:
53430
目录名称:
STARLINK-4538
国际标识:
2022-097AU
轨道中心:
EARTH
卫星名称:
星链-4538
卫星全名:
星链-4538 (STARLINK-4538 )
卫星状态:
在轨 (已飞行1486 天)
发射日期:
2022-08-10 UTC
国别 :
美国 (US)
星等 :
--
Orbit Information
数据来源 国际轨道数据 AOE轨道数据
星历时间 2026-09-02T02:16:01+0800
2天前
查看轨道信息
2026-09-01T08:00:00+0800
3天前
查看轨道信息
半长轴 6837.875km 6837.844km
偏心率 0.000099 0.0001125
轨道倾角 53.162° 53.162°
近地点辐角 97.227° 63.333°
升交点赤经 21.301° 24.865°
平近点角 262.884° 47.390°
近地点 459.061km 458.937km
远地点 460.415km 460.477km
周期 93.787分钟 93.786分钟
每日圈数 15.353985 15.354089
Detailed Information
固有亮度:
5
最大亮度:
2.5
卫星平台:
Starlink v1.5
覆盖范围:
全球
运营商:
太空探索技术公司
运营商所在国:
美国
制造商(研发单位):
太空探索技术公司
制造商所在国:
美国
使用方式:
暂无
Satellite Introduction
星链(Starlink)计划是由太空探索技术公司(SpaceX)提出的一个巨型低轨卫星互联网星座项目,计划在2019年至2024年间在太空搭建由约1.2万颗卫星组成的“星链”网络,其中1584颗将部署在地球上空550千米处的近地轨道,并从2020年开始工作。该卫星仍在工作。
2D Orbit Map
3D Orbit Map
Orbit Altitude Analysis Chart
Orbit Inclination Analysis Chart
Orbit Comprehensive Analysis Chart
View Comprehensive Chart
Conjunction Data List
Event ID Objects TCA Miss Dist (km) Collision Risk Probability Collision Risk Index (CRI) Action
CDM_260904-183705-343006-321721
OBJECT H (63217)
2026-09-04T
18:37:54+0000
2.322 km
极远距离
1.949216E-6 低风险 0.41
CDM_260904-134005-343006-688621
2026-09-04T
13:40:58+0000
2.326 km
极远距离
1.520093E-6 低风险 0.39
CDM_260905-002105-343006-031621
2026-09-05T
00:21:46+0000
2.680 km
极远距离
1.397124E-6 低风险 0.38
CDM_260904-231205-343006-580821
2026-09-04T
23:12:17+0000
2.785 km
极远距离
1.298285E-6 低风险 0.37
CDM_260905-034305-343006-589021
2026-09-05T
03:43:17+0000
2.629 km
极远距离
1.274543E-6 低风险 0.37
CDM_260903-030505-343006-059422
2026-09-03T
03:05:22+0000
2.892 km
极远距离
1.255806E-6 低风险 0.37
CDM_260905-064905-178405-343021
2026-09-05T
06:49:42+0000
2.711 km
极远距离
1.247804E-6 低风险 0.37
CDM_260904-195405-189505-343021
2026-09-04T
19:54:57+0000
2.762 km
极远距离
1.173653E-6 低风险 0.36
CDM_260903-093505-343006-612521
2026-09-03T
09:35:35+0000
2.705 km
极远距离
1.083132E-6 低风险 0.36
CDM_260904-024905-343006-617221
2026-09-04T
02:49:05+0000
2.696 km
极远距离
9.150797E-7 极低风险 0.34